This is the latest recevied weather packets stored in our database for station/object W4BOD. If no packets are shown the sender has not sent any weather packets the latest 10 day(s).
| Time | Temp. | Humidity | Pressure | Rain* | Wind** | Luminosity | Snow |
|---|---|---|---|---|---|---|---|
| 1778016452 | 23.89° C | 52% | 1009 hPa | 0 mm | - | 139 W/m² | - |
| 1778016150 | 23.89° C | 53% | 1009 hPa | 0 mm | - | 201 W/m² | - |
| 1778015847 | 25° C | 50% | 1009 hPa | 0 mm | - | 208 W/m² | - |
| 1778015544 | 25° C | 50% | 1008.8 hPa | 0 mm | - | 220 W/m² | - |
| 1778015240 | 25° C | 50% | 1008.4 hPa | 0 mm | - | 187 W/m² | - |
| 1778014937 | 24.44° C | 50% | 1008.6 hPa | 0 mm | - | 242 W/m² | - |
| 1778014635 | 25° C | 50% | 1008.5 hPa | 0 mm | - | 170 W/m² | - |
| 1778014333 | 25.56° C | 50% | 1008.6 hPa | 0 mm | - | 506 W/m² | - |
| 1778014029 | 25° C | 51% | 1008.5 hPa | 0 mm | - | 156 W/m² | - |
| 1778013727 | 25° C | 50% | 1008.6 hPa | 0 mm | - | 317 W/m² | - |
| 1778013424 | 25.56° C | 52% | 1008.8 hPa | 0 mm | - | 590 W/m² | - |
| 1778013121 | 25° C | 52% | 1008.8 hPa | 0 mm | - | 581 W/m² | - |
| 1778012816 | 25° C | 54% | 1009 hPa | 0 mm | - | 632 W/m² | - |
| 1778012513 | 25° C | 52% | 1009 hPa | 0 mm | - | 720 W/m² | - |
| 1778012209 | 25° C | 51% | 1009.2 hPa | 0 mm | - | 708 W/m² | - |
| 1778011907 | 24.44° C | 53% | 1009.3 hPa | 0 mm | - | 785 W/m² | - |
| 1778011605 | 24.44° C | 54% | 1009.5 hPa | 0 mm | - | 339 W/m² | - |
| 1778011302 | 25° C | 54% | 1009.4 hPa | 0 mm | - | 346 W/m² | - |
| 1778010997 | 24.44° C | 53% | 1009.4 hPa | 0 mm | - | 803 W/m² | - |
| 1778010695 | 24.44° C | 53% | 1009.5 hPa | 0 mm | - | 818 W/m² | - |
| 1778010392 | 23.89° C | 55% | 1009.8 hPa | 0 mm | - | 809 W/m² | - |
| 1778010088 | 23.89° C | 58% | 1009.5 hPa | 0 mm | - | 881 W/m² | - |
| 1778009785 | 23.89° C | 56% | 1009.8 hPa | 0 mm | - | 416 W/m² | - |
| 1778009482 | 23.89° C | 53% | 1010.4 hPa | 0 mm | - | 1075 W/m² | - |
| 1778009181 | 23.33° C | 54% | 1010.3 hPa | 0 mm | - | 441 W/m² | - |
* Rain latest hour (hover to see other rain measurements)
** Current wind speed in m/s (hover to see current wind gust speed)